Location: Unspecified
(40.8819°N, 0.0000°E)
Time: 16:46:58
(UTC+00:00)

PCSat - Pass Details

Date: 21 April 2024
Orbit: 783 x 792 km, 67.1° (Epoch: 22 May)

Event Time Altitude Azimuth Distance (km) Brightness Sun altitude
Rises 21:22:25 0° 275° (W) 3,279 13.5 -25.8°
Reaches altitude 10° 21:27:34 10° 317° (NW) 2,358 13.0 -26.4°
Maximum altitude 21:28:19 10° 325° (NW) 2,341 13.0 -26.5°
Drops below altitude 10° 21:29:05 10° 333° (NNW) 2,360 13.0 -26.6°
Sets 21:34:16 0° 15° (NNE) 3,297 13.2 -27.3°
